M I D A S
Marine Information and Data Acquisition System
Tripno 1680 of the Zeeleeuw from 2009-04-23 11:40:05 to 2009-04-23 13:59:39
Back to CruiseResearch ActivitiesStationsMapUnderway DataData graphs

EquipmentUnitsComments
TimeDGPSUTC
LatitudeDGPSDM.mWGS84
LongitudeDGPSDM.mWGS84
SpeedMeteo Stationm/sRelative wind speed
DirectionMeteo StationdegRelative wind direction
TemperatureMeteo Stationdeg CelciusAir temperature
PressureMeteo StationPaAtmospheric pressure
HumidityMeteo Station%Relative humidity
Missing or incorrect values are displayed as -999
Metereological data collected by the RV Zeeleeuw from 2009-04-23 07:44:55 to 2009-04-23 14:07:14
                                                                                    Next 1000 lines
Time Latitude Longitude Speed Direction Temperature Pressure Humidity
2009-04-23 07:45:04 51°13.663 2°55.954 2.8 350 10.3 102510 68
2009-04-23 07:45:10 51°13.664 2°55.95 3 348 10.3 102510 68
2009-04-23 07:45:15 51°13.665 2°55.947 2.4 347 10.3 102520 68
2009-04-23 07:45:20 51°13.666 2°55.943 2.5 354 10.3 102520 68
2009-04-23 07:45:26 51°13.668 2°55.937 2.8 355 10.3 102520 67
2009-04-23 07:45:32 51°13.67 2°55.932 2.9 1 10.3 102520 67
2009-04-23 07:45:37 51°13.671 2°55.926 2.5 8 10.3 102520 66
2009-04-23 07:45:43 51°13.673 2°55.92 2.2 3 10.3 102520 66
2009-04-23 07:45:48 51°13.674 2°55.915 1.8 360 10.3 102510 66
2009-04-23 07:45:54 51°13.676 2°55.908 2.1 7 10.3 102510 66
2009-04-23 07:45:58 51°13.677 2°55.904 1.9 2 10.3 102510 65
2009-04-23 07:46:03 51°13.678 2°55.898 1.7 1 10.3 102510 65
2009-04-23 07:46:08 51°13.68 2°55.892 1.7 5 10.3 102510 65
2009-04-23 07:46:14 51°13.681 2°55.884 1.8 17 10.3 102510 65
2009-04-23 07:46:18 51°13.682 2°55.879 2.3 14 10.3 102510 65
2009-04-23 07:46:23 51°13.683 2°55.873 2.3 14 10.3 102510 65
2009-04-23 07:46:28 51°13.684 2°55.867 2 16 10.2 102510 65
2009-04-23 07:46:34 51°13.686 2°55.859 2.1 16 10.2 102510 65
2009-04-23 07:46:39 51°13.687 2°55.852 2 12 10.2 102510 65
2009-04-23 07:46:43 51°13.687 2°55.847 1.8 13 10.2 102510 65
2009-04-23 07:46:48 51°13.688 2°55.841 1.7 23 10.2 102510 65
2009-04-23 07:46:53 51°13.689 2°55.834 2.3 11 10.2 102510 65
2009-04-23 07:46:58 51°13.689 2°55.828 1.8 6 10.2 102510 65
2009-04-23 07:47:03 51°13.69 2°55.821 1.2 10 10.2 102510 65
2009-04-23 07:47:08 51°13.69 2°55.815 1.6 3 10.2 102510 65
2009-04-23 07:47:13 51°13.691 2°55.809 1.8 5 10.2 102510 65
2009-04-23 07:47:18 51°13.691 2°55.802 1.1 10 10.1 102510 65
2009-04-23 07:47:23 51°13.692 2°55.796 1 358 10.1 102510 65
2009-04-23 07:47:28 51°13.692 2°55.79 2.1 12 10.1 102510 65
2009-04-23 07:47:33 51°13.692 2°55.784 2.3 13 10.1 102510 65
2009-04-23 07:47:38 51°13.693 2°55.779 1.8 14 10.1 102510 65
2009-04-23 07:47:43 51°13.693 2°55.774 2 17 10.1 102510 65
2009-04-23 07:47:48 51°13.693 2°55.77 2.7 38 10.1 102510 66
2009-04-23 07:47:52 51°13.693 2°55.766 2.3 40 10.1 102510 66
2009-04-23 07:47:57 51°13.693 2°55.762 2.6 26 10.1 102510 66
2009-04-23 07:48:02 51°13.693 2°55.759 2.2 24 10.1 102510 66
2009-04-23 07:48:07 51°13.694 2°55.756 2.2 27 10.1 102510 67
2009-04-23 07:48:12 51°13.694 2°55.754 2.6 32 10.1 102510 67
2009-04-23 07:48:16 51°13.694 2°55.754 2.8 24 10.1 102510 66
2009-04-23 07:48:21 51°13.695 2°55.754 2 21 10.1 102510 66
2009-04-23 07:48:26 51°13.695 2°55.754 1.8 23 10.1 102510 66
2009-04-23 07:48:31 51°13.696 2°55.755 1.5 21 10.1 102510 66
2009-04-23 07:48:36 51°13.698 2°55.756 2.1 18 10 102510 65
2009-04-23 07:48:41 51°13.699 2°55.757 2.2 24 10 102510 65
2009-04-23 07:48:46 51°13.701 2°55.759 2.5 25 10 102510 65
2009-04-23 07:48:51 51°13.702 2°55.76 2.2 29 10 102510 65
2009-04-23 07:48:55 51°13.703 2°55.76 2.8 41 10 102510 65
2009-04-23 07:49:00 51°13.704 2°55.761 1.8 38 10 102510 65
2009-04-23 07:49:05 51°13.704 2°55.761 2.6 36 10 102510 65
2009-04-23 07:49:10 51°13.704 2°55.761 2.4 76 10 102510 65
2009-04-23 07:49:15 51°13.704 2°55.76 2.3 38 10 102510 65
2009-04-23 07:49:20 51°13.703 2°55.76 2.8 81 10 102510 65
2009-04-23 07:49:24 51°13.703 2°55.76 1.9 19 10 102510 65
2009-04-23 07:49:30 51°13.703 2°55.76 2 74 10 102510 65
2009-04-23 07:49:34 51°13.703 2°55.759 1.8 19 10 102510 65
2009-04-23 07:49:40 51°13.704 2°55.759 1.8 78 10 102510 65
2009-04-23 07:49:44 51°13.706 2°55.759 1.4 40 10 102510 65
2009-04-23 07:49:50 51°13.71 2°55.758 1.4 33 10 102510 65
2009-04-23 07:49:55 51°13.713 2°55.756 0.5 34 10 102510 65
2009-04-23 07:50:00 51°13.716 2°55.754 0.7 75 10 102510 65
2009-04-23 07:50:04 51°13.719 2°55.751 1.3 270 10 102510 65
2009-04-23 07:50:10 51°13.724 2°55.746 1.8 80 10 102510 65
2009-04-23 07:50:15 51°13.728 2°55.741 1.1 38 10 102510 65
2009-04-23 07:50:20 51°13.733 2°55.734 1 287 10 102510 65
2009-04-23 07:50:24 51°13.737 2°55.729 0.9 269 10 102510 65
2009-04-23 07:50:30 51°13.744 2°55.721 0.8 278 10 102510 65
2009-04-23 07:50:35 51°13.751 2°55.714 0.7 269 10 102520 66
2009-04-23 07:50:40 51°13.757 2°55.706 0.8 287 10 102520 66
2009-04-23 07:50:44 51°13.763 2°55.7 0.7 245 10 102520 66
2009-04-23 07:50:50 51°13.772 2°55.69 1 278 10 102520 66
2009-04-23 07:50:55 51°13.779 2°55.682 1.1 26 10 102520 65
2009-04-23 07:51:00 51°13.787 2°55.674 1.2 280 10 102520 65
2009-04-23 07:51:04 51°13.794 2°55.667 1 19 10 102520 65
2009-04-23 07:51:10 51°13.804 2°55.658 0.9 281 10 102520 65
2009-04-23 07:51:15 51°13.813 2°55.65 0.7 22 10.1 102520 65
2009-04-23 07:51:19 51°13.82 2°55.644 0.9 278 10.1 102520 65
2009-04-23 07:51:24 51°13.829 2°55.636 1.3 37 10.1 102520 65
2009-04-23 07:51:29 51°13.838 2°55.628 1.6 282 10.1 102520 65
2009-04-23 07:51:35 51°13.849 2°55.618 2.5 27 10.1 102520 65
2009-04-23 07:51:39 51°13.857 2°55.612 1.8 281 10.1 102520 65
2009-04-23 07:51:45 51°13.868 2°55.602 1.5 31 10.1 102520 65
2009-04-23 07:51:50 51°13.878 2°55.594 1.4 288 10.1 102520 65
2009-04-23 07:51:55 51°13.887 2°55.586 1.3 37 10.1 102520 65
2009-04-23 07:51:59 51°13.895 2°55.58 1.6 279 10.1 102520 65
2009-04-23 07:52:05 51°13.907 2°55.571 2 327 10.1 102520 65
2009-04-23 07:52:10 51°13.917 2°55.564 1.2 283 10.1 102520 65
2009-04-23 07:52:15 51°13.928 2°55.556 1.5 324 10.2 102520 65
2009-04-23 07:52:19 51°13.936 2°55.55 1.3 287 10.2 102520 65
2009-04-23 07:52:25 51°13.948 2°55.541 1.5 326 10.2 102520 65
2009-04-23 07:52:30 51°13.959 2°55.534 1.5 280 10.2 102520 65
2009-04-23 07:52:35 51°13.969 2°55.526 1.2 330 10.2 102520 64
2009-04-23 07:52:39 51°13.978 2°55.52 1.3 286 10.2 102520 64
2009-04-23 07:52:45 51°13.991 2°55.511 1.3 328 10.2 102520 64
2009-04-23 07:52:50 51°14.001 2°55.503 1.2 285 10.2 102520 64
2009-04-23 07:52:55 51°14.012 2°55.495 1.4 328 10.2 102520 64
2009-04-23 07:52:59 51°14.021 2°55.489 1.6 282 10.2 102520 64
2009-04-23 07:53:05 51°14.034 2°55.479 1.5 331 10.2 102520 64
2009-04-23 07:53:10 51°14.045 2°55.472 1.7 280 10.2 102520 64
2009-04-23 07:53:15 51°14.056 2°55.464 1.8 330 10.2 102520 64
2009-04-23 07:53:20 51°14.067 2°55.456 2.1 276 10.2 102520 64
2009-04-23 07:53:24 51°14.076 2°55.449 1.7 335 10.2 102520 64
2009-04-23 07:53:30 51°14.09 2°55.44 1.6 284 10.2 102520 64
2009-04-23 07:53:35 51°14.1 2°55.431 1.6 331 10.2 102520 64
2009-04-23 07:53:40 51°14.111 2°55.423 1.4 279 10.2 102520 64
2009-04-23 07:53:44 51°14.121 2°55.417 1.9 328 10.2 102520 64
2009-04-23 07:53:50 51°14.134 2°55.406 1.4 277 10.2 102520 64
2009-04-23 07:53:55 51°14.145 2°55.397 1.4 334 10.2 102520 64
2009-04-23 07:54:00 51°14.156 2°55.387 1.8 283 10.2 102520 64
2009-04-23 07:54:05 51°14.166 2°55.377 1.6 334 10.2 102520 64
2009-04-23 07:54:10 51°14.177 2°55.367 1.5 279 10.2 102520 64
2009-04-23 07:54:15 51°14.187 2°55.356 1.7 333 10.2 102520 64
2009-04-23 07:54:20 51°14.198 2°55.345 1.8 278 10.3 102520 64
2009-04-23 07:54:24 51°14.206 2°55.336 1.7 332 10.3 102530 64
2009-04-23 07:54:30 51°14.217 2°55.321 1.8 285 10.3 102530 64
2009-04-23 07:54:35 51°14.227 2°55.309 2.1 325 10.3 102520 64
2009-04-23 07:54:39 51°14.235 2°55.298 2.4 285 10.3 102520 64
2009-04-23 07:54:44 51°14.244 2°55.285 2.1 320 10.3 102530 64
2009-04-23 07:54:50 51°14.254 2°55.268 2.2 284 10.3 102530 64
2009-04-23 07:54:55 51°14.263 2°55.254 2.2 34 10.3 102520 64
2009-04-23 07:55:00 51°14.271 2°55.239 2.2 280 10.3 102520 64
2009-04-23 07:55:05 51°14.28 2°55.224 1.9 317 10.3 102530 64
2009-04-23 07:55:10 51°14.288 2°55.209 3.5 279 10.3 102530 64
2009-04-23 07:55:15 51°14.297 2°55.194 3.2 316 10.4 102520 64
2009-04-23 07:55:20 51°14.305 2°55.179 4.3 280 10.4 102520 64
2009-04-23 07:55:24 51°14.312 2°55.167 3.1 319 10.4 102530 64
2009-04-23 07:55:30 51°14.321 2°55.147 3.2 284 10.4 102530 64
2009-04-23 07:55:35 51°14.329 2°55.131 3.1 318 10.4 102530 64
2009-04-23 07:55:40 51°14.337 2°55.114 2.7 284 10.4 102530 64
2009-04-23 07:55:44 51°14.344 2°55.101 2.8 320 10.4 102520 64
2009-04-23 07:55:50 51°14.353 2°55.079 2.9 284 10.4 102520 64
2009-04-23 07:55:55 51°14.36 2°55.062 3.2 320 10.4 102520 64
2009-04-23 07:56:00 51°14.367 2°55.043 3.3 286 10.4 102520 64
2009-04-23 07:56:04 51°14.373 2°55.029 3.1 37 10.4 102520 63
2009-04-23 07:56:10 51°14.382 2°55.007 3 278 10.4 102520 63
2009-04-23 07:56:15 51°14.39 2°54.988 2.4 318 10.4 102520 63
2009-04-23 07:56:20 51°14.397 2°54.969 2.7 280 10.4 102520 63
2009-04-23 07:56:25 51°14.404 2°54.949 3.5 318 10.4 102530 62
2009-04-23 07:56:30 51°14.41 2°54.929 4.5 285 10.4 102530 62
2009-04-23 07:56:35 51°14.416 2°54.908 4.8 319 10.4 102530 62
2009-04-23 07:56:39 51°14.421 2°54.892 4 282 10.4 102530 62
2009-04-23 07:56:44 51°14.427 2°54.87 4 22 10.4 102520 62
2009-04-23 07:56:50 51°14.433 2°54.844 4.7 282 10.4 102520 62
2009-04-23 07:56:55 51°14.439 2°54.822 3.8 31 10.4 102530 62
2009-04-23 07:56:59 51°14.443 2°54.804 4 279 10.4 102530 62
2009-04-23 07:57:04 51°14.45 2°54.782 3.6 315 10.4 102520 61
2009-04-23 07:57:10 51°14.457 2°54.755 3.4 280 10.4 102520 61
2009-04-23 07:57:15 51°14.463 2°54.732 3.7 38 10.4 102520 61
2009-04-23 07:57:19 51°14.468 2°54.714 3 278 10.4 102520 61
2009-04-23 07:57:25 51°14.476 2°54.688 2.9 37 10.4 102520 60
2009-04-23 07:57:30 51°14.482 2°54.666 2.4 279 10.4 102520 60
2009-04-23 07:57:35 51°14.489 2°54.644 2.6 319 10.3 102520 59
2009-04-23 07:57:40 51°14.496 2°54.622 3 286 10.3 102520 59
2009-04-23 07:57:44 51°14.501 2°54.604 2.5 318 10.3 102520 59
2009-04-23 07:57:50 51°14.509 2°54.578 3.5 280 10.3 102520 59
2009-04-23 07:57:55 51°14.516 2°54.557 3.7 323 10.3 102520 59
2009-04-23 07:58:00 51°14.522 2°54.537 3.3 285 10.3 102520 59
2009-04-23 07:58:04 51°14.527 2°54.523 2.9 322 10.3 102520 59
2009-04-23 07:58:10 51°14.534 2°54.502 2.7 281 10.3 102520 59
2009-04-23 07:58:15 51°14.539 2°54.486 2.5 318 10.3 102530 59
2009-04-23 07:58:20 51°14.544 2°54.47 2.5 281 10.3 102530 59
2009-04-23 07:58:24 51°14.548 2°54.459 2.2 322 10.3 102530 60
2009-04-23 07:58:30 51°14.554 2°54.441 2.8 281 10.3 102530 60
2009-04-23 07:58:35 51°14.559 2°54.428 2.7 241 10.4 102520 60
2009-04-23 07:58:40 51°14.564 2°54.414 2.9 282 10.4 102520 60
2009-04-23 07:58:45 51°14.568 2°54.402 3.1 244 10.4 102520 60
2009-04-23 07:58:50 51°14.573 2°54.389 2.3 281 10.4 102520 60
2009-04-23 07:58:55 51°14.577 2°54.377 2.4 245 10.4 102520 61
2009-04-23 07:59:00 51°14.582 2°54.364 2.4 281 10.4 102520 61
2009-04-23 07:59:04 51°14.586 2°54.354 2.3 244 10.4 102520 62
2009-04-23 07:59:10 51°14.591 2°54.337 3 286 10.4 102520 62
2009-04-23 07:59:15 51°14.595 2°54.323 2.5 241 10.4 102520 62
2009-04-23 07:59:20 51°14.6 2°54.308 3.1 285 10.4 102520 62
2009-04-23 07:59:24 51°14.604 2°54.295 2.9 32 10.5 102520 62
2009-04-23 07:59:30 51°14.61 2°54.276 4 280 10.5 102520 62
2009-04-23 07:59:35 51°14.615 2°54.259 4.1 238 10.5 102520 62
2009-04-23 07:59:39 51°14.619 2°54.245 3.6 280 10.5 102520 62
2009-04-23 07:59:45 51°14.626 2°54.223 4.3 236 10.5 102520 62
2009-04-23 07:59:50 51°14.631 2°54.204 4.7 284 10.5 102530 62
2009-04-23 07:59:55 51°14.637 2°54.185 3.9 235 10.5 102520 61
2009-04-23 08:00:00 51°14.643 2°54.165 3.7 279 10.5 102520 61
2009-04-23 08:00:04 51°14.648 2°54.149 4.8 34 10.5 102520 61
2009-04-23 08:00:10 51°14.656 2°54.125 4.6 285 10.5 102520 61
2009-04-23 08:00:15 51°14.662 2°54.104 4.7 36 10.5 102520 60
2009-04-23 08:00:20 51°14.669 2°54.082 4.6 284 10.5 102520 60
2009-04-23 08:00:24 51°14.674 2°54.065 4.5 37 10.5 102520 60
2009-04-23 08:00:30 51°14.683 2°54.039 4.8 284 10.5 102520 60
2009-04-23 08:00:35 51°14.69 2°54.016 4.2 31 10.5 102520 59
2009-04-23 08:00:40 51°14.697 2°53.993 4.2 280 10.5 102520 59
2009-04-23 08:00:44 51°14.703 2°53.974 4.6 36 10.5 102520 59
2009-04-23 08:00:50 51°14.711 2°53.946 5.3 279 10.5 102520 59
2009-04-23 08:00:55 51°14.718 2°53.923 4.1 35 10.5 102520 59
2009-04-23 08:01:00 51°14.726 2°53.899 4.1 284 10.5 102520 59
2009-04-23 08:01:04 51°14.732 2°53.88 4.8 24 10.4 102520 59
2009-04-23 08:01:10 51°14.741 2°53.852 4.8 279 10.4 102520 59
2009-04-23 08:01:15 51°14.748 2°53.828 4.1 38 10.4 102520 59
2009-04-23 08:01:20 51°14.756 2°53.804 4.9 279 10.4 102520 59
2009-04-23 08:01:24 51°14.762 2°53.785 4 34 10.4 102520 59
2009-04-23 08:01:30 51°14.771 2°53.756 4.5 286 10.4 102520 59
2009-04-23 08:01:35 51°14.778 2°53.732 5 318 10.4 102520 60
2009-04-23 08:01:40 51°14.786 2°53.708 5 285 10.4 102520 60
2009-04-23 08:01:45 51°14.793 2°53.684 5.2 320 10.4 102520 61
2009-04-23 08:01:50 51°14.8 2°53.66 4.9 279 10.4 102520 61
2009-04-23 08:01:55 51°14.808 2°53.636 5.1 318 10.4 102530 61
2009-04-23 08:01:59 51°14.814 2°53.618 5.2 280 10.4 102530 61
2009-04-23 08:02:05 51°14.823 2°53.589 4.4 30 10.4 102530 61
2009-04-23 08:02:10 51°14.831 2°53.565 5.3 285 10.4 102530 62
2009-04-23 08:02:15 51°14.838 2°53.541 5.3 316 10.4 102520 62
2009-04-23 08:02:20 51°14.846 2°53.518 4.5 281 10.4 102520 62
2009-04-23 08:02:24 51°14.852 2°53.499 4.3 317 10.4 102530 62
2009-04-23 08:02:30 51°14.861 2°53.47 4.3 285 10.4 102530 62
2009-04-23 08:02:35 51°14.869 2°53.447 5.7 318 10.3 102520 62
2009-04-23 08:02:40 51°14.876 2°53.423 4.8 281 10.3 102520 62
2009-04-23 08:02:44 51°14.881 2°53.403 5.9 320 10.3 102520 62
2009-04-23 08:02:50 51°14.89 2°53.375 5.6 286 10.3 102520 62
2009-04-23 08:02:55 51°14.897 2°53.351 4.6 319 10.3 102530 62
2009-04-23 08:03:00 51°14.904 2°53.327 4.6 279 10.3 102530 62
2009-04-23 08:03:05 51°14.911 2°53.302 4.6 321 10.3 102520 62
2009-04-23 08:03:10 51°14.918 2°53.278 5.1 283 10.3 102520 62
2009-04-23 08:03:15 51°14.925 2°53.254 5.4 319 10.3 102520 62
2009-04-23 08:03:20 51°14.932 2°53.229 4.6 286 10.2 102520 61
2009-04-23 08:03:24 51°14.937 2°53.21 4.7 322 10.2 102530 60
2009-04-23 08:03:30 51°14.946 2°53.181 4.2 280 10.2 102530 60
2009-04-23 08:03:35 51°14.953 2°53.156 4.7 316 10.2 102530 60
2009-04-23 08:03:40 51°14.96 2°53.132 3.9 280 10.2 102530 60
2009-04-23 08:03:44 51°14.965 2°53.113 5 319 10.2 102530 60
2009-04-23 08:03:50 51°14.974 2°53.084 4.1 286 10.2 102530 60
2009-04-23 08:03:55 51°14.981 2°53.059 4.3 318 10.1 102530 61
2009-04-23 08:04:00 51°14.988 2°53.035 4.8 285 10.1 102530 61
2009-04-23 08:04:05 51°14.994 2°53.01 4.9 318 10.1 102530 61
2009-04-23 08:04:10 51°15.001 2°52.985 5.4 285 10.1 102530 61
2009-04-23 08:04:15 51°15.008 2°52.96 4.2 315 10.1 102530 62
2009-04-23 08:04:20 51°15.015 2°52.936 4.2 281 10.1 102530 62
2009-04-23 08:04:24 51°15.02 2°52.916 4.2 317 10.1 102530 62
2009-04-23 08:04:30 51°15.029 2°52.888 5.3 285 10.1 102530 62
2009-04-23 08:04:35 51°15.037 2°52.865 4.4 319 10.1 102530 62
2009-04-23 08:04:40 51°15.044 2°52.84 4.5 280 10.1 102530 62
2009-04-23 08:04:44 51°15.05 2°52.821 4.5 318 10.1 102530 62
2009-04-23 08:04:50 51°15.059 2°52.792 4.7 283 10.1 102530 62
2009-04-23 08:04:55 51°15.066 2°52.767 4.5 318 10.1 102530 62
2009-04-23 08:05:00 51°15.073 2°52.743 5.5 286 10.1 102530 62
2009-04-23 08:05:04 51°15.079 2°52.724 5.5 317 10.1 102530 62
2009-04-23 08:05:10 51°15.088 2°52.694 5.1 278 10.1 102530 62
2009-04-23 08:05:15 51°15.095 2°52.67 6.5 317 10.1 102530 61
2009-04-23 08:05:20 51°15.102 2°52.645 5.3 281 10.1 102530 61
2009-04-23 08:05:25 51°15.109 2°52.62 6.2 316 10.1 102530 61
2009-04-23 08:05:30 51°15.116 2°52.596 6 280 10.1 102530 61
2009-04-23 08:05:35 51°15.123 2°52.571 5 39 10.1 102530 62
2009-04-23 08:05:40 51°15.13 2°52.546 6.8 279 10.1 102530 62
2009-04-23 08:05:44 51°15.136 2°52.527 5.1 319 10 102530 62
2009-04-23 08:05:50 51°15.144 2°52.497 6 277 10 102530 62
2009-04-23 08:05:55 51°15.151 2°52.473 5.8 321 10 102530 62
2009-04-23 08:05:59 51°15.157 2°52.453 6.5 287 10 102530 62
2009-04-23 08:06:04 51°15.163 2°52.428 6.2 320 10 102530 63
2009-04-23 08:06:10 51°15.173 2°52.399 5.3 279 10 102530 63
2009-04-23 08:06:15 51°15.18 2°52.374 6.2 319 10 102530 64
2009-04-23 08:06:19 51°15.186 2°52.355 4.9 278 10 102530 64
2009-04-23 08:06:25 51°15.194 2°52.325 5.7 321 10 102530 64
2009-04-23 08:06:30 51°15.201 2°52.301 5.1 277 10 102530 64
2009-04-23 08:06:35 51°15.208 2°52.276 5.2 320 10 102530 64
2009-04-23 08:06:40 51°15.215 2°52.251 5.2 280 10 102530 64
2009-04-23 08:06:44 51°15.22 2°52.231 5.7 319 10 102530 64
2009-04-23 08:06:50 51°15.228 2°52.201 6 285 10 102530 64
2009-04-23 08:06:55 51°15.234 2°52.176 5 320 10 102530 64
2009-04-23 08:07:00 51°15.241 2°52.152 5.4 283 10 102530 64
2009-04-23 08:07:04 51°15.246 2°52.133 5.2 320 9.9 102530 64
2009-04-23 08:07:10 51°15.255 2°52.103 6.7 280 9.9 102530 64
2009-04-23 08:07:15 51°15.261 2°52.078 6.5 316 9.9 102520 64
2009-04-23 08:07:20 51°15.268 2°52.053 5 278 9.9 102520 64
2009-04-23 08:07:24 51°15.273 2°52.033 5.1 316 9.9 102530 65
2009-04-23 08:07:30 51°15.282 2°52.003 5.9 280 9.9 102530 65
2009-04-23 08:07:35 51°15.289 2°51.978 5 316 9.9 102530 65
2009-04-23 08:07:40 51°15.296 2°51.954 6 279 9.9 102530 65
2009-04-23 08:07:44 51°15.301 2°51.934 5.2 317 9.9 102530 64
2009-04-23 08:07:50 51°15.31 2°51.905 6.2 279 9.9 102530 64
2009-04-23 08:07:55 51°15.317 2°51.88 6.2 318 9.9 102520 64
2009-04-23 08:07:59 51°15.322 2°51.86 6 285 9.9 102520 64
2009-04-23 08:08:04 51°15.328 2°51.835 5.1 319 9.9 102530 64
2009-04-23 08:08:10 51°15.333 2°51.804 6.1 283 9.9 102530 64
2009-04-23 08:08:15 51°15.338 2°51.779 6.4 319 9.8 102530 64
2009-04-23 08:08:20 51°15.341 2°51.753 5.5 282 9.8 102530 64
2009-04-23 08:08:24 51°15.342 2°51.731 5.6 319 9.8 102530 64
2009-04-23 08:08:30 51°15.343 2°51.699 6 286 9.8 102530 64
2009-04-23 08:08:35 51°15.344 2°51.672 5.6 318 9.8 102530 63
2009-04-23 08:08:39 51°15.343 2°51.65 6.4 285 9.8 102530 63
2009-04-23 08:08:45 51°15.342 2°51.617 6.3 320 9.8 102530 63
2009-04-23 08:08:50 51°15.338 2°51.59 5.9 282 9.8 102530 63
2009-04-23 08:08:55 51°15.335 2°51.563 6.8 320 9.8 102530 63
2009-04-23 08:09:00 51°15.331 2°51.536 7 287 9.8 102530 63
2009-04-23 08:09:04 51°15.327 2°51.514 5.6 320 9.8 102530 63
2009-04-23 08:09:10 51°15.321 2°51.482 6.1 286 9.8 102530 63
2009-04-23 08:09:15 51°15.316 2°51.456 6.4 319 9.8 102530 64
2009-04-23 08:09:20 51°15.311 2°51.429 7.3 280 9.8 102530 64
2009-04-23 08:09:24 51°15.306 2°51.408 7.6 320 9.8 102520 64
2009-04-23 08:09:30 51°15.299 2°51.377 7.4 282 9.8 102520 64
2009-04-23 08:09:35 51°15.293 2°51.351 6.4 318 9.8 102530 64
2009-04-23 08:09:40 51°15.287 2°51.325 6.2 281 9.8 102530 64
2009-04-23 08:09:45 51°15.281 2°51.301 7.8 319 9.8 102530 63
2009-04-23 08:09:50 51°15.275 2°51.277 6.2 281 9.8 102530 63
2009-04-23 08:09:55 51°15.269 2°51.253 5.8 320 9.8 102530 63
2009-04-23 08:10:00 51°15.264 2°51.23 5.6 285 9.8 102520 63
2009-04-23 08:10:04 51°15.26 2°51.212 7.3 318 9.8 102530 64
2009-04-23 08:10:10 51°15.253 2°51.188 6.7 280 9.8 102530 64
2009-04-23 08:10:15 51°15.248 2°51.169 6.5 316 9.8 102530 64
2009-04-23 08:10:20 51°15.244 2°51.151 5 279 9.8 102530 64
2009-04-23 08:10:24 51°15.24 2°51.137 5.6 27 9.8 102530 64
2009-04-23 08:10:30 51°15.234 2°51.117 5.3 284 9.8 102530 64
2009-04-23 08:10:35 51°15.23 2°51.102 4.9 316 9.8 102530 65
2009-04-23 08:10:40 51°15.226 2°51.086 4 286 9.8 102530 65
2009-04-23 08:10:45 51°15.222 2°51.072 4.1 315 9.8 102530 65
2009-04-23 08:10:50 51°15.218 2°51.058 4.8 280 9.8 102530 65
2009-04-23 08:10:55 51°15.214 2°51.045 4.2 38 9.8 102530 65
2009-04-23 08:11:00 51°15.21 2°51.033 4.7 283 9.8 102530 65
2009-04-23 08:11:04 51°15.207 2°51.023 4.5 19 9.8 102530 65
2009-04-23 08:11:10 51°15.202 2°51.01 5.3 280 9.8 102530 65
2009-04-23 08:11:15 51°15.198 2°50.999 4.1 35 9.8 102530 65
2009-04-23 08:11:20 51°15.194 2°50.989 4.2 281 9.8 102530 65
2009-04-23 08:11:24 51°15.191 2°50.982 4.6 317 9.8 102530 65
2009-04-23 08:11:30 51°15.186 2°50.971 4.5 279 9.8 102530 65
2009-04-23 08:11:35 51°15.182 2°50.962 4.7 316 9.8 102530 66
2009-04-23 08:11:40 51°15.178 2°50.953 3.8 281 9.8 102530 66
2009-04-23 08:11:44 51°15.175 2°50.947 4.1 321 9.8 102530 66
2009-04-23 08:11:50 51°15.171 2°50.937 3.7 279 9.8 102530 66
2009-04-23 08:11:55 51°15.167 2°50.93 4.4 318 9.8 102530 66
2009-04-23 08:12:00 51°15.163 2°50.922 4 284 9.8 102530 66
2009-04-23 08:12:05 51°15.159 2°50.916 4.6 316 9.8 102530 67
2009-04-23 08:12:10 51°15.156 2°50.909 4.6 280 9.8 102530 67
2009-04-23 08:12:15 51°15.152 2°50.902 4.5 318 9.9 102530 67
2009-04-23 08:12:20 51°15.148 2°50.896 4.5 284 9.9 102530 67
2009-04-23 08:12:24 51°15.145 2°50.892 4.4 323 9.9 102530 67
2009-04-23 08:12:30 51°15.141 2°50.885 4.1 285 9.9 102530 67
2009-04-23 08:12:35 51°15.137 2°50.88 4 324 9.9 102530 67
2009-04-23 08:12:39 51°15.135 2°50.876 3.3 282 9.9 102530 67
2009-04-23 08:12:44 51°15.131 2°50.871 3.6 326 9.9 102530 67
2009-04-23 08:12:50 51°15.126 2°50.866 3.5 279 9.9 102530 67
2009-04-23 08:12:55 51°15.123 2°50.862 2.8 325 9.9 102530 67
2009-04-23 08:12:59 51°15.12 2°50.858 3.5 277 9.9 102530 67
2009-04-23 08:13:05 51°15.116 2°50.854 2.9 327 9.9 102530 67
2009-04-23 08:13:10 51°15.112 2°50.85 3.8 279 9.9 102530 67
2009-04-23 08:13:15 51°15.109 2°50.847 3.1 325 9.9 102530 67
2009-04-23 08:13:20 51°15.105 2°50.844 3.8 284 9.9 102530 67
2009-04-23 08:13:24 51°15.102 2°50.842 4.2 327 9.9 102530 68
2009-04-23 08:13:30 51°15.098 2°50.838 4.2 279 9.9 102530 68
2009-04-23 08:13:35 51°15.095 2°50.836 4.1 327 9.9 102530 68
2009-04-23 08:13:40 51°15.092 2°50.833 3.9 278 9.9 102530 68
2009-04-23 08:13:44 51°15.089 2°50.831 3.7 329 9.9 102530 69
2009-04-23 08:13:50 51°15.085 2°50.828 3.6 279 9.9 102530 69
2009-04-23 08:13:55 51°15.082 2°50.826 3.8 331 9.9 102530 68
2009-04-23 08:14:00 51°15.078 2°50.824 3.2 280 9.9 102530 68
2009-04-23 08:14:04 51°15.075 2°50.822 3.9 330 9.9 102530 67
2009-04-23 08:14:10 51°15.071 2°50.82 4.1 278 9.9 102530 67
2009-04-23 08:14:15 51°15.067 2°50.817 3.5 329 9.9 102530 67
2009-04-23 08:14:20 51°15.064 2°50.815 4 280 9.9 102530 67
2009-04-23 08:14:25 51°15.06 2°50.813 3.6 328 9.9 102530 67
2009-04-23 08:14:30 51°15.056 2°50.812 3.4 285 9.9 102530 67
2009-04-23 08:14:35 51°15.053 2°50.81 3.9 327 9.9 102540 67
2009-04-23 08:14:40 51°15.049 2°50.808 3.6 280 9.9 102540 67
2009-04-23 08:14:44 51°15.046 2°50.807 2.7 328 9.9 102530 66
2009-04-23 08:14:50 51°15.042 2°50.804 2.7 281 9.9 102530 66
2009-04-23 08:14:55 51°15.039 2°50.803 2.8 324 9.9 102540 66
2009-04-23 08:14:59 51°15.036 2°50.801 3.5 277 9.9 102540 66
2009-04-23 08:15:04 51°15.032 2°50.8 3.8 323 9.9 102540 66
2009-04-23 08:15:10 51°15.028 2°50.798 3 279 9.9 102540 66
2009-04-23 08:15:15 51°15.025 2°50.796 2.7 326 9.8 102530 66
2009-04-23 08:15:19 51°15.022 2°50.795 3.1 283 9.8 102530 66
2009-04-23 08:15:25 51°15.018 2°50.793 2.4 329 9.9 102530 65
2009-04-23 08:15:30 51°15.015 2°50.791 3.2 280 9.9 102530 65
2009-04-23 08:15:35 51°15.012 2°50.79 3.1 325 9.9 102530 65
2009-04-23 08:15:40 51°15.009 2°50.789 2.8 278 9.9 102530 65
2009-04-23 08:15:44 51°15.006 2°50.787 3.1 331 9.8 102540 65
2009-04-23 08:15:50 51°15.002 2°50.786 2.8 280 9.8 102540 65
2009-04-23 08:15:55 51°14.998 2°50.784 2.6 330 9.8 102530 65
2009-04-23 08:16:00 51°14.994 2°50.783 2.6 286 9.8 102530 65
2009-04-23 08:16:04 51°14.991 2°50.782 3 328 9.9 102530 65
2009-04-23 08:16:10 51°14.986 2°50.78 3.3 287 9.9 102530 65
2009-04-23 08:16:15 51°14.982 2°50.778 2.7 329 9.9 102530 65
2009-04-23 08:16:20 51°14.978 2°50.777 3.6 278 9.9 102530 65
2009-04-23 08:16:24 51°14.974 2°50.775 3.1 331 9.9 102540 66
2009-04-23 08:16:30 51°14.968 2°50.773 3.7 285 9.9 102540 66
2009-04-23 08:16:35 51°14.964 2°50.772 3 330 9.9 102530 66
2009-04-23 08:16:40 51°14.959 2°50.769 3.4 286 9.9 102530 66
2009-04-23 08:16:44 51°14.955 2°50.768 3.4 331 9.9 102530 66
2009-04-23 08:16:50 51°14.949 2°50.765 4 280 9.9 102530 66
2009-04-23 08:16:55 51°14.944 2°50.763 4.4 328 9.9 102530 66
2009-04-23 08:17:00 51°14.939 2°50.76 3.6 283 9.9 102530 66
2009-04-23 08:17:04 51°14.935 2°50.757 4 325 9.9 102530 66
2009-04-23 08:17:10 51°14.929 2°50.754 4.2 278 9.9 102530 66
2009-04-23 08:17:15 51°14.924 2°50.751 4.3 325 9.9 102530 66
2009-04-23 08:17:19 51°14.92 2°50.748 4.2 280 9.9 102530 66
2009-04-23 08:17:25 51°14.914 2°50.744 4.8 322 9.9 102530 66
2009-04-23 08:17:30 51°14.908 2°50.741 3.9 284 9.9 102530 66
2009-04-23 08:17:35 51°14.903 2°50.737 4.4 323 9.9 102530 67
2009-04-23 08:17:39 51°14.899 2°50.734 3.9 278 9.9 102530 67
2009-04-23 08:17:45 51°14.893 2°50.729 4.8 324 9.9 102530 66
2009-04-23 08:17:50 51°14.888 2°50.725 4 283 9.9 102530 66
2009-04-23 08:17:55 51°14.883 2°50.721 5 321 9.9 102530 66
2009-04-23 08:18:00 51°14.878 2°50.717 4.9 286 9.9 102530 66
2009-04-23 08:18:04 51°14.874 2°50.714 4.6 322 9.9 102530 66
2009-04-23 08:18:10 51°14.868 2°50.708 4.8 279 9.9 102530 66
2009-04-23 08:18:15 51°14.863 2°50.704 4.6 324 9.9 102530 66
2009-04-23 08:18:20 51°14.858 2°50.699 3.8 281 9.9 102530 66
2009-04-23 08:18:24 51°14.854 2°50.695 3.6 323 9.9 102530 66
2009-04-23 08:18:30 51°14.848 2°50.689 3.8 279 9.9 102530 66
2009-04-23 08:18:35 51°14.844 2°50.684 4.4 320 9.9 102530 66
2009-04-23 08:18:40 51°14.839 2°50.678 4.7 284 9.9 102530 66
2009-04-23 08:18:45 51°14.834 2°50.673 3.8 321 9.9 102530 66
2009-04-23 08:18:50 51°14.83 2°50.667 3.8 280 9.9 102530 66
2009-04-23 08:18:55 51°14.825 2°50.661 4.3 319 9.9 102530 66
2009-04-23 08:19:00 51°14.821 2°50.656 4.3 285 9.9 102530 66
2009-04-23 08:19:04 51°14.817 2°50.652 4.3 319 9.9 102530 66
2009-04-23 08:19:10 51°14.812 2°50.645 3.8 285 9.9 102530 66
2009-04-23 08:19:15 51°14.808 2°50.639 4.5 316 9.9 102530 66
2009-04-23 08:19:20 51°14.804 2°50.633 4.2 280 9.9 102530 66
2009-04-23 08:19:24 51°14.801 2°50.628 3.3 21 9.9 102530 66
2009-04-23 08:19:30 51°14.796 2°50.621 4 278 9.9 102530 66
2009-04-23 08:19:35 51°14.792 2°50.615 3.8 39 9.9 102530 66
2009-04-23 08:19:40 51°14.788 2°50.61 3.6 281 9.9 102530 66
2009-04-23 08:19:44 51°14.785 2°50.605 3.6 20 9.9 102520 66
2009-04-23 08:19:50 51°14.78 2°50.598 3.4 281 9.9 102520 66
2009-04-23 08:19:55 51°14.777 2°50.592 3.3 37 9.9 102520 66
2009-04-23 08:20:00 51°14.773 2°50.586 3.4 281 9.9 102520 66
2009-04-23 08:20:04 51°14.77 2°50.581 3.2 24 9.9 102530 66
2009-04-23 08:20:10 51°14.765 2°50.574 2.7 284 9.9 102530 66
2009-04-23 08:20:15 51°14.762 2°50.568 3.2 31 9.9 102530 67
2009-04-23 08:20:20 51°14.758 2°50.562 3.2 283 9.9 102530 67
2009-04-23 08:20:24 51°14.755 2°50.557 3.1 38 9.9 102530 67
2009-04-23 08:20:30 51°14.751 2°50.55 2.5 286 9.9 102530 67
2009-04-23 08:20:35 51°14.747 2°50.544 2.5 37 9.9 102530 67
2009-04-23 08:20:40 51°14.744 2°50.538 2.4 278 9.9 102530 67
2009-04-23 08:20:44 51°14.741 2°50.533 2.9 33 9.9 102520 67
2009-04-23 08:20:50 51°14.737 2°50.526 2.2 280 9.9 102520 67
2009-04-23 08:20:55 51°14.733 2°50.52 3.2 36 9.9 102530 67
2009-04-23 08:21:00 51°14.73 2°50.514 3.4 281 9.9 102530 67
2009-04-23 08:21:05 51°14.727 2°50.508 3.9 38 9.9 102520 67
2009-04-23 08:21:10 51°14.723 2°50.503 3.5 282 9.9 102520 67
2009-04-23 08:21:15 51°14.72 2°50.497 3.8 36 9.9 102520 67
2009-04-23 08:21:20 51°14.716 2°50.491 3.1 284 9.9 102530 67
2009-04-23 08:21:24 51°14.714 2°50.486 3.8 27 9.9 102530 67
2009-04-23 08:21:30 51°14.71 2°50.479 3.1 281 9.9 102530 67
2009-04-23 08:21:35 51°14.706 2°50.474 3.8 232 9.9 102530 67
2009-04-23 08:21:40 51°14.703 2°50.468 4 279 9.9 102530 67
2009-04-23 08:21:44 51°14.7 2°50.463 3.4 25 9.9 102520 67
2009-04-23 08:21:50 51°14.696 2°50.457 3.3 281 9.9 102520 67
2009-04-23 08:21:55 51°14.693 2°50.451 3.4 36 9.9 102520 67
2009-04-23 08:22:00 51°14.69 2°50.445 3 279 9.9 102520 67
2009-04-23 08:22:05 51°14.686 2°50.439 3.7 26 9.9 102530 67
2009-04-23 08:22:10 51°14.683 2°50.434 3.4 285 9.9 102530 67
2009-04-23 08:22:15 51°14.68 2°50.428 3.5 34 9.9 102520 67
2009-04-23 08:22:20 51°14.676 2°50.422 3.6 279 9.9 102520 67
2009-04-23 08:22:24 51°14.674 2°50.418 2.8 236 9.9 102530 67
2009-04-23 08:22:30 51°14.67 2°50.411 2.7 283 9.9 102530 67
2009-04-23 08:22:35 51°14.667 2°50.405 3.3 32 9.9 102530 66
2009-04-23 08:22:40 51°14.663 2°50.4 3.3 279 9.9 102530 66
2009-04-23 08:22:44 51°14.661 2°50.395 2.6 236 9.9 102520 66
2009-04-23 08:22:50 51°14.657 2°50.388 2.6 282 9.9 102520 66
2009-04-23 08:22:55 51°14.654 2°50.382 2.9 234 10 102520 66
2009-04-23 08:23:00 51°14.65 2°50.377 2.4 283 10 102520 66
2009-04-23 08:23:04 51°14.648 2°50.372 3 234 9.9 102530 66
2009-04-23 08:23:10 51°14.644 2°50.365 2.9 278 9.9 102530 66
2009-04-23 08:23:15 51°14.641 2°50.359 2.9 33 10 102530 66
2009-04-23 08:23:20 51°14.637 2°50.354 2.9 286 10 102530 66
2009-04-23 08:23:24 51°14.635 2°50.349 3.1 238 10 102530 66
2009-04-23 08:23:30 51°14.631 2°50.342 2.7 284 10 102530 66
2009-04-23 08:23:35 51°14.628 2°50.336 3.2 34 10 102520 66
2009-04-23 08:23:40 51°14.625 2°50.331 2.4 278 10 102520 66
2009-04-23 08:23:44 51°14.622 2°50.326 2.2 25 10 102530 66
2009-04-23 08:23:50 51°14.619 2°50.319 2.3 284 10 102530 66
2009-04-23 08:23:55 51°14.615 2°50.313 2.2 38 10 102530 67
2009-04-23 08:24:00 51°14.612 2°50.308 2.3 285 10 102530 67
2009-04-23 08:24:04 51°14.61 2°50.303 2.3 34 10 102520 67
2009-04-23 08:24:10 51°14.606 2°50.296 2.2 281 10 102520 67
2009-04-23 08:24:15 51°14.603 2°50.291 2.3 32 10.1 102530 66
2009-04-23 08:24:19 51°14.6 2°50.286 2.4 279 10.1 102530 66
2009-04-23 08:24:25 51°14.596 2°50.279 2.1 29 10.1 102530 66
2009-04-23 08:24:30 51°14.593 2°50.274 2.1 279 10.1 102530 66
2009-04-23 08:24:35 51°14.59 2°50.268 2.7 30 10.1 102520 66
2009-04-23 08:24:40 51°14.586 2°50.262 2.6 280 10.1 102520 66
2009-04-23 08:24:44 51°14.584 2°50.258 2.8 32 10.1 102530 66
2009-04-23 08:24:50 51°14.58 2°50.251 2.8 288 10.1 102530 66
2009-04-23 08:24:55 51°14.577 2°50.245 2.2 33 10.1 102530 66
2009-04-23 08:25:00 51°14.573 2°50.24 2.5 285 10.1 102530 66
2009-04-23 08:25:04 51°14.571 2°50.235 2.1 32 10.1 102530 66
2009-04-23 08:25:10 51°14.567 2°50.228 2.8 279 10.1 102530 66
2009-04-23 08:25:15 51°14.564 2°50.223 2.3 32 10.2 102520 66
2009-04-23 08:25:20 51°14.56 2°50.217 2.4 278 10.2 102520 66
2009-04-23 08:25:25 51°14.557 2°50.211 2.8 236 10.2 102520 66
2009-04-23 08:25:30 51°14.554 2°50.206 3.3 280 10.2 102520 66
2009-04-23 08:25:35 51°14.551 2°50.2 2.9 24 10.2 102520 66
2009-04-23 08:25:40 51°14.547 2°50.195 3 279 10.2 102520 66
2009-04-23 08:25:44 51°14.545 2°50.19 3.2 32 10.2 102520 66
2009-04-23 08:25:50 51°14.541 2°50.183 2.9 277 10.2 102520 66
2009-04-23 08:25:55 51°14.537 2°50.178 2.9 235 10.2 102520 66
2009-04-23 08:26:00 51°14.534 2°50.172 3.6 285 10.2 102520 66
2009-04-23 08:26:04 51°14.532 2°50.168 3.7 26 10.2 102530 65
2009-04-23 08:26:10 51°14.528 2°50.161 3.1 286 10.2 102530 65
2009-04-23 08:26:15 51°14.524 2°50.156 3.9 30 10.2 102520 65
2009-04-23 08:26:20 51°14.521 2°50.15 3.8 278 10.2 102520 65
2009-04-23 08:26:24 51°14.519 2°50.146 4 237 10.2 102530 64
2009-04-23 08:26:30 51°14.515 2°50.139 2.9 287 10.2 102530 64
2009-04-23 08:26:35 51°14.512 2°50.133 1.6 239 10.3 102520 64
2009-04-23 08:26:39 51°14.509 2°50.129 3.4 285 10.3 102520 64
2009-04-23 08:26:45 51°14.505 2°50.122 4.2 21 10.3 102520 65
2009-04-23 08:26:50 51°14.502 2°50.116 4.4 283 10.3 102520 65
2009-04-23 08:26:55 51°14.499 2°50.11 4.2 239 10.3 102520 65
2009-04-23 08:27:00 51°14.496 2°50.104 3.3 285 10.3 102520 65
2009-04-23 08:27:04 51°14.494 2°50.099 3.8 242 10.3 102530 65
2009-04-23 08:27:10 51°14.491 2°50.092 3 279 10.3 102530 65
2009-04-23 08:27:15 51°14.488 2°50.086 3.6 240 10.4 102520 65
2009-04-23 08:27:20 51°14.485 2°50.08 3.6 286 10.4 102520 65
2009-04-23 08:27:24 51°14.483 2°50.075 2.6 237 10.4 102520 65
2009-04-23 08:27:30 51°14.48 2°50.067 3.3 281 10.4 102520 65
2009-04-23 08:27:35 51°14.477 2°50.061 3.8 240 10.4 102520 65
2009-04-23 08:27:40 51°14.474 2°50.055 3.8 279 10.4 102520 65
2009-04-23 08:27:45 51°14.472 2°50.049 3.4 241 10.4 102520 64
2009-04-23 08:27:50 51°14.469 2°50.043 3.3 286 10.4 102520 64
2009-04-23 08:27:55 51°14.466 2°50.036 4.3 24 10.4 102520 64
2009-04-23 08:28:00 51°14.464 2°50.03 3.3 286 10.4 102520 64
2009-04-23 08:28:04 51°14.462 2°50.025 4 25 10.4 102520 64
2009-04-23 08:28:10 51°14.458 2°50.017 4.1 277 10.4 102520 64
2009-04-23 08:28:15 51°14.456 2°50.011 3.5 242 10.5 102520 63
2009-04-23 08:28:20 51°14.453 2°50.004 3 284 10.5 102520 63
2009-04-23 08:28:24 51°14.451 2°49.999 3.5 242 10.5 102520 63
2009-04-23 08:28:30 51°14.448 2°49.991 3.1 284 10.5 102520 63
2009-04-23 08:28:35 51°14.445 2°49.984 3.2 242 10.5 102520 63
2009-04-23 08:28:40 51°14.442 2°49.978 3.6 287 10.5 102520 63
2009-04-23 08:28:44 51°14.44 2°49.972 3.2 26 10.5 102520 63
2009-04-23 08:28:50 51°14.436 2°49.964 2.9 284 10.5 102520 63
2009-04-23 08:28:55 51°14.434 2°49.957 3.2 241 10.5 102520 63
2009-04-23 08:29:00 51°14.431 2°49.95 2.6 281 10.5 102520 63
2009-04-23 08:29:04 51°14.429 2°49.945 3.1 20 10.6 102520 63
2009-04-23 08:29:10 51°14.425 2°49.937 3.2 281 10.6 102520 63
2009-04-23 08:29:15 51°14.422 2°49.93 4.2 31 10.6 102520 63
2009-04-23 08:29:20 51°14.419 2°49.923 3.7 284 10.6 102520 63
2009-04-23 08:29:24 51°14.417 2°49.918 3.5 235 10.6 102520 62
2009-04-23 08:29:30 51°14.414 2°49.909 3 284 10.6 102520 62
2009-04-23 08:29:35 51°14.411 2°49.902 3.5 233 10.6 102520 62
2009-04-23 08:29:40 51°14.408 2°49.896 2.9 284 10.6 102520 62
2009-04-23 08:29:44 51°14.405 2°49.89 3.7 37 10.6 102520 62
2009-04-23 08:29:50 51°14.402 2°49.882 2.9 279 10.6 102520 62
2009-04-23 08:29:55 51°14.399 2°49.875 2.9 232 10.6 102520 62
2009-04-23 08:30:00 51°14.396 2°49.868 3 282 10.6 102520 62
2009-04-23 08:30:05 51°14.393 2°49.861 3.2 37 10.6 102520 62
2009-04-23 08:30:10 51°14.39 2°49.854 3.2 278 10.6 102520 62
2009-04-23 08:30:15 51°14.387 2°49.847 3.2 33 10.6 102520 62
2009-04-23 08:30:20 51°14.384 2°49.84 3.4 278 10.6 102520 62
2009-04-23 08:30:24 51°14.382 2°49.835 3.2 27 10.6 102520 61
2009-04-23 08:30:30 51°14.378 2°49.826 3.1 279 10.6 102520 61
2009-04-23 08:30:35 51°14.375 2°49.819 3.6 36 10.6 102520 61
2009-04-23 08:30:40 51°14.373 2°49.812 3.6 279 10.6 102520 61
2009-04-23 08:30:44 51°14.37 2°49.807 3.7 24 10.6 102510 61
2009-04-23 08:30:50 51°14.367 2°49.798 3.6 277 10.6 102510 61
2009-04-23 08:30:55 51°14.364 2°49.791 3.8 237 10.6 102520 60
2009-04-23 08:30:59 51°14.361 2°49.785 3.1 284 10.6 102520 60
2009-04-23 08:31:05 51°14.358 2°49.777 3.5 20 10.6 102520 60
2009-04-23 08:31:10 51°14.355 2°49.77 3.4 287 10.6 102520 60
2009-04-23 08:31:15 51°14.352 2°49.763 2.3 33 10.7 102520 60
2009-04-23 08:31:20 51°14.349 2°49.756 2.4 278 10.7 102520 60
2009-04-23 08:31:24 51°14.347 2°49.751 2.8 24 10.6 102520 60
2009-04-23 08:31:30 51°14.343 2°49.742 2.7 285 10.6 102520 60
2009-04-23 08:31:35 51°14.34 2°49.736 2.5 34 10.6 102510 60
2009-04-23 08:31:40 51°14.338 2°49.728 2.4 280 10.6 102510 60
2009-04-23 08:31:44 51°14.335 2°49.723 2.9 239 10.7 102520 60
2009-04-23 08:31:50 51°14.332 2°49.715 2.2 285 10.7 102520 60
2009-04-23 08:31:55 51°14.329 2°49.708 1.9 238 10.7 102520 60
2009-04-23 08:32:00 51°14.326 2°49.701 2.3 284 10.7 102520 60
2009-04-23 08:32:04 51°14.324 2°49.695 2.6 36 10.7 102520 60
2009-04-23 08:32:10 51°14.32 2°49.687 2.9 278 10.7 102520 60
2009-04-23 08:32:15 51°14.317 2°49.68 3 33 10.7 102520 60
2009-04-23 08:32:20 51°14.314 2°49.673 3 278 10.7 102520 60
2009-04-23 08:32:24 51°14.312 2°49.668 2.9 234 10.7 102520 60
2009-04-23 08:32:30 51°14.308 2°49.659 3 279 10.7 102520 60
2009-04-23 08:32:35 51°14.305 2°49.652 3.5 33 10.7 102520 60
2009-04-23 08:32:40 51°14.302 2°49.646 3.5 280 10.7 102520 60
2009-04-23 08:32:44 51°14.3 2°49.64 3.6 27 10.7 102510 61
2009-04-23 08:32:50 51°14.296 2°49.632 2.7 281 10.7 102510 61
2009-04-23 08:32:55 51°14.293 2°49.625 3.7 30 10.7 102520 61
2009-04-23 08:33:00 51°14.29 2°49.618 2.9 285 10.7 102520 61
2009-04-23 08:33:04 51°14.288 2°49.613 3 28 10.7 102520 61
2009-04-23 08:33:10 51°14.284 2°49.604 2.9 285 10.7 102520 61
2009-04-23 08:33:15 51°14.281 2°49.597 2.8 240 10.7 102520 61
2009-04-23 08:33:20 51°14.278 2°49.59 2.2 281 10.7 102520 61
2009-04-23 08:33:25 51°14.275 2°49.584 2.3 25 10.7 102510 61
2009-04-23 08:33:30 51°14.272 2°49.577 2.8 279 10.7 102510 61
2009-04-23 08:33:35 51°14.269 2°49.57 2.5 21 10.8 102520 61
2009-04-23 08:33:40 51°14.266 2°49.563 2.5 286 10.8 102520 61
2009-04-23 08:33:44 51°14.264 2°49.557 2.5 21 10.7 102520 61
2009-04-23 08:33:50 51°14.26 2°49.549 2.7 280 10.7 102520 61
2009-04-23 08:33:55 51°14.257 2°49.542 2.9 36 10.8 102520 61
2009-04-23 08:34:00 51°14.254 2°49.535 4 283 10.8 102520 61
2009-04-23 08:34:04 51°14.252 2°49.53 3 35 10.8 102520 61
2009-04-23 08:34:10 51°14.248 2°49.522 3.1 281 10.8 102520 61
2009-04-23 08:34:15 51°14.245 2°49.515 3.8 234 10.8 102520 61
2009-04-23 08:34:20 51°14.242 2°49.508 3.7 284 10.8 102520 61
2009-04-23 08:34:25 51°14.239 2°49.501 4.2 32 10.8 102510 61
2009-04-23 08:34:30 51°14.236 2°49.494 4.4 284 10.8 102510 61
2009-04-23 08:34:35 51°14.233 2°49.487 4.1 25 10.8 102520 61
2009-04-23 08:34:40 51°14.231 2°49.48 2.9 279 10.8 102520 61
2009-04-23 08:34:44 51°14.228 2°49.475 3.3 28 10.8 102520 60
2009-04-23 08:34:50 51°14.225 2°49.467 3.5 287 10.8 102520 60
2009-04-23 08:34:55 51°14.222 2°49.46 3 240 10.8 102520 60
2009-04-23 08:35:00 51°14.219 2°49.453 2.8 277 10.8 102520 60
2009-04-23 08:35:04 51°14.216 2°49.447 3 27 10.8 102520 60
2009-04-23 08:35:10 51°14.213 2°49.439 2.9 287 10.8 102520 60
2009-04-23 08:35:15 51°14.21 2°49.432 3.8 31 10.8 102520 60
2009-04-23 08:35:20 51°14.207 2°49.425 4 285 10.8 102520 60
2009-04-23 08:35:24 51°14.204 2°49.42 3.7 28 10.8 102520 60
2009-04-23 08:35:30 51°14.201 2°49.412 3.8 285 10.8 102520 60
2009-04-23 08:35:35 51°14.198 2°49.405 3.5 32 10.8 102520 60
2009-04-23 08:35:39 51°14.195 2°49.4 3.2 281 10.8 102520 60
2009-04-23 08:35:44 51°14.192 2°49.393 3.6 23 10.8 102520 60
2009-04-23 08:35:50 51°14.188 2°49.385 3 287 10.8 102520 60
2009-04-23 08:35:55 51°14.185 2°49.378 4.1 28 10.8 102520 60
2009-04-23 08:36:00 51°14.183 2°49.371 3.8 286 10.8 102520 60
2009-04-23 08:36:04 51°14.18 2°49.366 4 37 10.8 102520 60
2009-04-23 08:36:10 51°14.176 2°49.357 3 279 10.8 102520 60
2009-04-23 08:36:15 51°14.174 2°49.351 3.1 34 10.8 102520 60
2009-04-23 08:36:20 51°14.171 2°49.344 2.7 283 10.8 102520 60
2009-04-23 08:36:24 51°14.168 2°49.339 3.3 38 10.8 102520 60
2009-04-23 08:36:30 51°14.165 2°49.331 3.1 279 10.8 102520 60
2009-04-23 08:36:35 51°14.162 2°49.324 3.2 40 10.8 102520 59
2009-04-23 08:36:40 51°14.159 2°49.317 2.7 283 10.8 102520 59
2009-04-23 08:36:45 51°14.156 2°49.31 3.1 32 10.8 102520 59
2009-04-23 08:36:50 51°14.153 2°49.304 3.2 278 10.8 102520 59
2009-04-23 08:36:55 51°14.15 2°49.297 3 19 10.8 102520 59
2009-04-23 08:37:00 51°14.147 2°49.29 2.3 284 10.8 102520 59
2009-04-23 08:37:04 51°14.144 2°49.285 2.8 28 10.8 102520 59
2009-04-23 08:37:10 51°14.141 2°49.277 3.7 281 10.8 102520 59
2009-04-23 08:37:15 51°14.138 2°49.27 3.8 235 10.8 102520 59
2009-04-23 08:37:20 51°14.135 2°49.263 3.2 285 10.8 102520 59
2009-04-23 08:37:24 51°14.133 2°49.258 3.2 23 10.8 102520 59
2009-04-23 08:37:30 51°14.13 2°49.249 3.2 278 10.8 102520 59
2009-04-23 08:37:35 51°14.127 2°49.242 3.9 238 10.8 102520 59
2009-04-23 08:37:40 51°14.124 2°49.235 3.1 277 10.8 102520 59
2009-04-23 08:37:45 51°14.121 2°49.228 2.9 25 10.8 102520 59
2009-04-23 08:37:50 51°14.119 2°49.221 3.6 286 10.8 102520 59
2009-04-23 08:37:55 51°14.116 2°49.214 3.4 32 10.8 102520 59
2009-04-23 08:38:00 51°14.114 2°49.207 3.3 285 10.8 102520 59
2009-04-23 08:38:04 51°14.112 2°49.201 2.2 27 10.8 102520 59
2009-04-23 08:38:10 51°14.109 2°49.193 3.4 281 10.8 102520 59
2009-04-23 08:38:15 51°14.106 2°49.186 3 35 10.8 102520 59
2009-04-23 08:38:20 51°14.103 2°49.179 3.5 277 10.8 102520 59
2009-04-23 08:38:24 51°14.101 2°49.173 3.4 31 10.8 102520 59
2009-04-23 08:38:30 51°14.098 2°49.165 2.7 284 10.8 102520 59
2009-04-23 08:38:35 51°14.095 2°49.158 3.5 234 10.8 102520 59
2009-04-23 08:38:40 51°14.093 2°49.151 3.8 284 10.8 102520 59
2009-04-23 08:38:44 51°14.091 2°49.145 3.7 236 10.8 102520 59
2009-04-23 08:38:50 51°14.088 2°49.137 3.2 280 10.8 102520 59
2009-04-23 08:38:55 51°14.085 2°49.13 3.1 238 10.8 102520 60
2009-04-23 08:39:00 51°14.082 2°49.123 3.5 279 10.8 102520 60
2009-04-23 08:39:05 51°14.08 2°49.116 2.8 33 10.8 102520 59
2009-04-23 08:39:10 51°14.077 2°49.109 3.2 280 10.8 102520 59
2009-04-23 08:39:15 51°14.075 2°49.102 4.4 238 10.8 102520 59
2009-04-23 08:39:20 51°14.072 2°49.095 3.8 284 10.8 102520 59
2009-04-23 08:39:24 51°14.07 2°49.089 3.9 21 10.8 102520 59
2009-04-23 08:39:30 51°14.067 2°49.081 3.7 281 10.8 102520 59
2009-04-23 08:39:35 51°14.064 2°49.074 2.6 238 10.8 102520 60
2009-04-23 08:39:40 51°14.062 2°49.067 3.2 283 10.8 102520 60
2009-04-23 08:39:44 51°14.06 2°49.062 3.3 20 10.8 102520 60
2009-04-23 08:39:50 51°14.057 2°49.053 3 -999 10.8 102520 60
2009-04-23 08:39:55 51°14.054 2°49.046 3.2 33 10.9 102520 60
2009-04-23 08:40:00 51°14.052 2°49.039 3.3 280 10.9 102520 60
2009-04-23 08:40:05 51°14.049 2°49.033 2.9 28 10.9 102520 61
2009-04-23 08:40:10 51°14.046 2°49.026 3.2 284 10.9 102520 61
2009-04-23 08:40:15 51°14.044 2°49.019 2.9 234 10.9 102520 61
2009-04-23 08:40:20 51°14.041 2°49.012 3.7 283 10.9 102520 61
2009-04-23 08:40:24 51°14.039 2°49.006 3.6 25 10.9 102520 62
2009-04-23 08:40:30 51°14.036 2°48.998 3.6 287 10.9 102520 62
2009-04-23 08:40:35 51°14.034 2°48.991 3.5 33 10.9 102510 61
2009-04-23 08:40:40 51°14.031 2°48.984 2.7 278 10.9 102510 61
2009-04-23 08:40:45 51°14.028 2°48.978 2.6 27 10.9 102520 61
2009-04-23 08:40:50 51°14.026 2°48.971 2.7 281 10.9 102520 61
2009-04-23 08:40:55 51°14.023 2°48.964 2.9 36 10.9 102510 61
2009-04-23 08:41:00 51°14.021 2°48.957 2.7 281 10.9 102510 61
2009-04-23 08:41:04 51°14.019 2°48.952 3.3 28 10.9 102520 61
2009-04-23 08:41:10 51°14.016 2°48.944 3.2 286 10.9 102520 61
2009-04-23 08:41:15 51°14.013 2°48.937 3.9 239 10.9 102520 61
2009-04-23 08:41:20 51°14.01 2°48.93 4.1 279 10.9 102520 61
2009-04-23 08:41:24 51°14.008 2°48.925 3.1 31 10.9 102520 61
2009-04-23 08:41:30 51°14.005 2°48.917 3.1 280 10.9 102520 61
2009-04-23 08:41:35 51°14.003 2°48.91 4.1 27 10.9 102520 61
2009-04-23 08:41:40 51°14 2°48.903 4.1 279 10.9 102520 61
2009-04-23 08:41:44 51°13.998 2°48.898 3.6 23 10.9 102520 61
2009-04-23 08:41:50 51°13.995 2°48.89 3 -999 10.9 102520 61
2009-04-23 08:41:55 51°13.992 2°48.883 3.8 235 10.8 102520 61
2009-04-23 08:42:00 51°13.99 2°48.876 3.9 284 10.8 102520 61
2009-04-23 08:42:04 51°13.988 2°48.871 4 25 10.8 102520 61
2009-04-23 08:42:10 51°13.985 2°48.863 3.8 280 10.8 102520 61
2009-04-23 08:42:15 51°13.982 2°48.857 4.1 233 10.9 102520 61
2009-04-23 08:42:20 51°13.98 2°48.85 3.6 279 10.9 102520 61
2009-04-23 08:42:25 51°13.977 2°48.843 4.2 19 10.8 102510 62
2009-04-23 08:42:30 51°13.975 2°48.836 4.4 285 10.8 102510 62
2009-04-23 08:42:35 51°13.972 2°48.83 3.5 26 10.9 102510 62
2009-04-23 08:42:40 51°13.97 2°48.823 4.1 280 10.9 102510 62
2009-04-23 08:42:44 51°13.968 2°48.818 3.8 23 10.8 102510 62
2009-04-23 08:42:50 51°13.965 2°48.81 4 278 10.8 102510 62
2009-04-23 08:42:55 51°13.962 2°48.803 3.4 31 10.8 102520 61
2009-04-23 08:43:00 51°13.96 2°48.797 4.1 282 10.8 102520 61
2009-04-23 08:43:04 51°13.958 2°48.791 3.9 234 10.8 102520 61
2009-04-23 08:43:10 51°13.955 2°48.783 4.1 279 10.8 102520 61
2009-04-23 08:43:15 51°13.952 2°48.777 4 236 10.8 102520 61
2009-04-23 08:43:20 51°13.95 2°48.77 3.1 279 10.8 102520 61
2009-04-23 08:43:25 51°13.947 2°48.764 3.9 241 10.8 102520 61
2009-04-23 08:43:30 51°13.945 2°48.757 3.4 285 10.8 102520 61
2009-04-23 08:43:35 51°13.942 2°48.75 4 28 10.8 102520 61
2009-04-23 08:43:40 51°13.94 2°48.743 3.3 285 10.8 102520 61
2009-04-23 08:43:44 51°13.938 2°48.738 4.2 27 10.8 102520 61
2009-04-23 08:43:50 51°13.935 2°48.73 3.2 -999 10.8 102520 61
2009-04-23 08:43:55 51°13.932 2°48.723 3.2 234 10.8 102510 62
2009-04-23 08:44:00 51°13.93 2°48.717 3.6 278 10.8 102510 62
2009-04-23 08:44:04 51°13.928 2°48.712 3 19 10.8 102520 61
2009-04-23 08:44:10 51°13.925 2°48.704 3.6 284 10.8 102520 61
2009-04-23 08:44:15 51°13.922 2°48.697 3.6 26 10.8 102520 61
2009-04-23 08:44:20 51°13.92 2°48.69 3.2 285 10.8 102520 61
2009-04-23 08:44:24 51°13.918 2°48.685 2.9 26 10.8 102510 60
2009-04-23 08:44:30 51°13.915 2°48.677 3.1 285 10.8 102510 60
2009-04-23 08:44:35 51°13.913 2°48.67 3 34 10.8 102520 60
2009-04-23 08:44:40 51°13.91 2°48.664 2.4 278 10.8 102520 60
2009-04-23 08:44:44 51°13.908 2°48.659 3.3 19 10.8 102520 60
2009-04-23 08:44:50 51°13.905 2°48.651 3.2 281 10.8 102520 60
2009-04-23 08:44:55 51°13.903 2°48.644 2.2 24 10.8 102520 59
2009-04-23 08:45:00 51°13.9 2°48.637 3.4 281 10.8 102520 59
2009-04-23 08:45:04 51°13.898 2°48.632 2.7 22 10.8 102520 59
2009-04-23 08:45:10 51°13.895 2°48.624 3 277 10.8 102520 59
2009-04-23 08:45:15 51°13.893 2°48.618 2.5 32 10.8 102520 59
2009-04-23 08:45:20 51°13.89 2°48.611 2.6 284 10.8 102520 59
2009-04-23 08:45:25 51°13.888 2°48.604 2.6 27 10.8 102520 59
2009-04-23 08:45:30 51°13.885 2°48.598 2.5 280 10.8 102520 59
2009-04-23 08:45:35 51°13.883 2°48.591 2.6 37 10.8 102520 59
2009-04-23 08:45:40 51°13.881 2°48.584 2.8 279 10.8 102520 59
2009-04-23 08:45:45 51°13.878 2°48.578 3 30 10.8 102520 59
2009-04-23 08:45:50 51°13.875 2°48.571 3.5 278 10.8 102520 59
2009-04-23 08:45:55 51°13.873 2°48.564 3.2 25 10.8 102520 59
2009-04-23 08:46:00 51°13.871 2°48.558 2.9 283 10.8 102520 59
2009-04-23 08:46:04 51°13.869 2°48.553 2.2 27 10.8 102520 59
2009-04-23 08:46:10 51°13.866 2°48.545 2.2 285 10.8 102520 59
2009-04-23 08:46:15 51°13.863 2°48.538 2.3 35 10.8 102510 59
2009-04-23 08:46:20 51°13.861 2°48.531 3.2 282 10.8 102510 59
2009-04-23 08:46:24 51°13.859 2°48.526 2.6 28 10.8 102520 59
2009-04-23 08:46:30 51°13.856 2°48.518 3.4 284 10.8 102520 59
2009-04-23 08:46:35 51°13.853 2°48.512 3.2 236 10.8 102520 59
2009-04-23 08:46:40 51°13.851 2°48.505 3.3 281 10.8 102520 59
2009-04-23 08:46:45 51°13.848 2°48.498 3.2 22 10.8 102520 59
2009-04-23 08:46:50 51°13.846 2°48.492 2.9 282 10.8 102520 59
2009-04-23 08:46:55 51°13.844 2°48.485 1.9 242 10.8 102520 59
2009-04-23 08:47:00 51°13.841 2°48.479 3.1 279 10.8 102520 59
2009-04-23 08:47:04 51°13.839 2°48.473 4.2 20 10.8 102520 59
2009-04-23 08:47:10 51°13.836 2°48.465 3.7 279 10.8 102520 59
2009-04-23 08:47:15 51°13.834 2°48.459 3.4 244 10.8 102510 60
2009-04-23 08:47:20 51°13.831 2°48.452 4.2 286 10.8 102510 60
2009-04-23 08:47:24 51°13.829 2°48.447 3.9 23 10.9 102520 60
2009-04-23 08:47:30 51°13.826 2°48.439 3.9 280 10.9 102520 60
2009-04-23 08:47:35 51°13.824 2°48.432 3.9 246 10.8 102510 60
2009-04-23 08:47:40 51°13.822 2°48.426 3 279 10.8 102510 60
2009-04-23 08:47:44 51°13.82 2°48.42 2.8 26 10.8 102520 60
2009-04-23 08:47:50 51°13.817 2°48.413 3.6 284 10.8 102520 60
2009-04-23 08:47:55 51°13.814 2°48.406 3.9 239 10.9 102510 60
2009-04-23 08:48:00 51°13.812 2°48.399 2.8 284 10.9 102510 60
2009-04-23 08:48:04 51°13.81 2°48.394 3.4 242 10.9 102510 60
2009-04-23 08:48:10 51°13.808 2°48.386 3.9 284 10.9 102510 60
2009-04-23 08:48:15 51°13.805 2°48.38 3 246 10.9 102510 60
2009-04-23 08:48:20 51°13.803 2°48.373 4.2 278 10.9 102510 60
2009-04-23 08:48:24 51°13.801 2°48.368 3.9 22 10.9 102510 60
2009-04-23 08:48:30 51°13.799 2°48.36 4.2 278 10.9 102510 60
2009-04-23 08:48:35 51°13.797 2°48.353 4.5 242 10.9 102510 61
2009-04-23 08:48:40 51°13.794 2°48.347 3.8 282 10.9 102510 61
2009-04-23 08:48:44 51°13.793 2°48.341 4.6 21 10.9 102510 60
2009-04-23 08:48:50 51°13.79 2°48.333 4.7 279 10.9 102510 60
2009-04-23 08:48:55 51°13.788 2°48.327 3.9 243 10.9 102510 60
2009-04-23 08:49:00 51°13.786 2°48.32 3.8 283 10.9 102510 60
2009-04-23 08:49:05 51°13.785 2°48.314 4.4 19 11 102510 61
2009-04-23 08:49:10 51°13.783 2°48.307 4.4 280 11 102510 61
2009-04-23 08:49:15 51°13.781 2°48.301 4.1 242 11 102510 60
2009-04-23 08:49:20 51°13.779 2°48.294 3.6 280 11 102510 60
2009-04-23 08:49:24 51°13.778 2°48.289 3.7 25 11 102510 59
2009-04-23 08:49:30 51°13.776 2°48.281 3.6 282 11 102510 59
2009-04-23 08:49:35 51°13.774 2°48.275 3.6 244 11 102500 59
2009-04-23 08:49:40 51°13.772 2°48.268 2.7 283 11 102500 59
2009-04-23 08:49:44 51°13.771 2°48.263 2.9 242 10.9 102510 59
2009-04-23 08:49:50 51°13.769 2°48.255 2.8 282 10.9 102510 59
2009-04-23 08:49:55 51°13.767 2°48.249 2.9 241 10.9 102500 58
2009-04-23 08:50:00 51°13.766 2°48.242 3.3 283 10.9 102500 58
2009-04-23 08:50:05 51°13.764 2°48.236 2.9 240 11 102510 58
2009-04-23 08:50:10 51°13.763 2°48.229 2.7 281 11 102510 58
2009-04-23 08:50:15 51°13.761 2°48.222 3.2 25 11 102500 58
2009-04-23 08:50:20 51°13.76 2°48.216 3.1 284 11 102500 58
2009-04-23 08:50:24 51°13.759 2°48.21 3.6 244 11 102510 58
2009-04-23 08:50:30 51°13.757 2°48.202 3.5 279 11 102510 58
2009-04-23 08:50:35 51°13.756 2°48.196 3.7 20 11 102500 58
2009-04-23 08:50:40 51°13.755 2°48.189 3 286 11 102500 58
2009-04-23 08:50:44 51°13.754 2°48.183 3.2 19 11 102500 58
2009-04-23 08:50:50 51°13.752 2°48.175 3.3 281 11 102500 58
2009-04-23 08:50:55 51°13.751 2°48.168 2.4 244 11 102510 58
2009-04-23 08:51:00 51°13.75 2°48.161 3.5 281 11 102510 58
2009-04-23 08:51:04 51°13.749 2°48.156 2.7 25 11 102500 58
2009-04-23 08:51:10 51°13.748 2°48.147 2.6 281 11 102500 58
2009-04-23 08:51:15 51°13.748 2°48.141 3.5 245 11 102500 58
2009-04-23 08:51:20 51°13.747 2°48.134 3.5 279 11 102500 58
2009-04-23 08:51:24 51°13.746 2°48.129 3.8 250 11 102500 58
2009-04-23 08:51:30 51°13.746 2°48.122 3.6 279 11 102500 58
2009-04-23 08:51:35 51°13.745 2°48.115 2.9 251 11 102500 58
2009-04-23 08:51:40 51°13.744 2°48.109 2.8 282 11 102500 58
2009-04-23 08:51:45 51°13.744 2°48.103 2.4 252 11 102500 57
2009-04-23 08:51:50 51°13.743 2°48.097 2.4 280 11 102500 57
2009-04-23 08:51:55 51°13.743 2°48.092 2.6 245 11 102500 57
2009-04-23 08:52:00 51°13.742 2°48.086 2.6 283 11 102500 57
2009-04-23 08:52:04 51°13.742 2°48.082 2.2 249 11 102500 57
2009-04-23 08:52:10 51°13.741 2°48.075 2.5 280 11 102500 57
2009-04-23 08:52:15 51°13.741 2°48.069 2.8 251 11 102500 57
2009-04-23 08:52:20 51°13.741 2°48.064 2.9 285 11 102500 57
2009-04-23 08:52:25 51°13.74 2°48.058 3.1 255 11.1 102510 57
2009-04-23 08:52:30 51°13.74 2°48.053 2.8 277 11.1 102510 57
2009-04-23 08:52:35 51°13.74 2°48.048 2.7 254 11.1 102510 58
2009-04-23 08:52:40 51°13.739 2°48.043 2.3 277 11.1 102510 58
2009-04-23 08:52:44 51°13.739 2°48.039 2.6 252 11.1 102500 57
2009-04-23 08:52:50 51°13.738 2°48.032 2 -999 11.1 102500 57
2009-04-23 08:52:55 51°13.738 2°48.027 2.1 251 11.1 102500 58
2009-04-23 08:53:00 51°13.738 2°48.023 2.6 285 11.1 102500 58
2009-04-23 08:53:05 51°13.737 2°48.018 3.6 257 11.1 102500 58
2009-04-23 08:53:10 51°13.737 2°48.013 2.5 284 11.1 102510 58
2009-04-23 08:53:15 51°13.737 2°48.008 2.8 259 11.1 102510 58
2009-04-23 08:53:20 51°13.737 2°48.003 2.5 279 11.1 102500 58
2009-04-23 08:53:25 51°13.736 2°47.999 2.1 263 11.1 102500 58
2009-04-23 08:53:30 51°13.736 2°47.994 3.2 279 11.2 102500 59
2009-04-23 08:53:35 51°13.736 2°47.99 2.7 260 11.2 102500 59
2009-04-23 08:53:40 51°13.736 2°47.986 2 281 11.2 102510 59
2009-04-23 08:53:44 51°13.735 2°47.982 2.6 261 11.2 102500 58
2009-04-23 08:53:50 51°13.735 2°47.978 2.3 -999 11.2 102500 58
2009-04-23 08:53:55 51°13.735 2°47.974 2.1 262 11.2 102500 58
2009-04-23 08:54:00 51°13.734 2°47.97 1.8 277 11.2 102500 58
2009-04-23 08:54:05 51°13.734 2°47.966 2.8 262 11.2 102500 58
2009-04-23 08:54:10 51°13.734 2°47.963 2.6 283 11.2 102500 58
2009-04-23 08:54:15 51°13.734 2°47.959 2.4 261 11.2 102500 58
2009-04-23 08:54:20 51°13.733 2°47.955 2.6 286 11.2 102500 58
2009-04-23 08:54:24 51°13.733 2°47.953 2.9 257 11.2 102500 58
2009-04-23 08:54:30 51°13.733 2°47.949 2.2 277 11.2 102510 57
2009-04-23 08:54:35 51°13.732 2°47.945 2.3 255 11.2 102500 57
2009-04-23 08:54:40 51°13.732 2°47.942 3.1 286 11.2 102500 57
2009-04-23 08:54:44 51°13.732 2°47.94 3.1 257 11.2 102500 57
2009-04-23 08:54:50 51°13.731 2°47.936 2.8 286 11.2 102500 57
2009-04-23 08:54:55 51°13.731 2°47.933 2.6 255 11.2 102500 56
2009-04-23 08:55:00 51°13.73 2°47.93 2.9 277 11.2 102500 56
2009-04-23 08:55:04 51°13.73 2°47.928 2.3 255 11.2 102500 56
2009-04-23 08:55:10 51°13.73 2°47.924 2.3 278 11.2 102500 56
2009-04-23 08:55:15 51°13.73 2°47.921 2.7 254 11.2 102510 56
2009-04-23 08:55:20 51°13.729 2°47.919 2.4 286 11.2 102510 56
2009-04-23 08:55:25 51°13.729 2°47.916 2.3 256 11.2 102510 56
2009-04-23 08:55:30 51°13.728 2°47.913 2.4 279 11.2 102500 57
2009-04-23 08:55:35 51°13.728 2°47.91 3.3 254 11.2 102500 57
2009-04-23 08:55:40 51°13.728 2°47.907 2.6 277 11.2 102500 57
2009-04-23 08:55:45 51°13.727 2°47.904 2.6 262 11.2 102500 57
2009-04-23 08:55:50 51°13.727 2°47.9 2.3 284 11.2 102500 57
2009-04-23 08:55:55 51°13.726 2°47.895 2.7 260 11.2 102510 58
2009-04-23 08:56:00 51°13.726 2°47.89 2.2 287 11.2 102510 58
2009-04-23 08:56:05 51°13.726 2°47.885 1.6 262 11.3 102510 58
2009-04-23 08:56:10 51°13.727 2°47.88 1.4 279 11.3 102510 58
2009-04-23 08:56:15 51°13.727 2°47.874 1.7 260 11.3 102510 58
2009-04-23 08:56:20 51°13.729 2°47.868 1.6 288 11.3 102510 58
2009-04-23 08:56:25 51°13.73 2°47.862 1.2 269 11.3 102510 58
2009-04-23 08:56:30 51°13.732 2°47.857 1.3 277 11.3 102510 58
2009-04-23 08:56:35 51°13.734 2°47.851 1.1 41 11.3 102510 58
2009-04-23 08:56:40 51°13.737 2°47.846 1.2 75 11.3 102510 58
2009-04-23 08:56:45 51°13.74 2°47.841 1.2 38 11.3 102510 58
2009-04-23 08:56:50 51°13.743 2°47.837 0.8 -999 11.3 102510 58
2009-04-23 08:56:55 51°13.747 2°47.833 0.5 31 11.3 102510 59
2009-04-23 08:57:00 51°13.751 2°47.83 0.5 359 11.3 102510 59
2009-04-23 08:57:04 51°13.755 2°47.827 1.1 8 11.4 102510 59
2009-04-23 08:57:10 51°13.761 2°47.825 2 351 11.4 102510 59
2009-04-23 08:57:15 51°13.767 2°47.825 2.5 357 11.4 102510 58
2009-04-23 08:57:20 51°13.773 2°47.825 2.6 2 11.4 102510 58
2009-04-23 08:57:25 51°13.779 2°47.827 2.5 359 11.4 102510 58
2009-04-23 08:57:30 51°13.786 2°47.831 3.1 3 11.4 102510 58
2009-04-23 08:57:35 51°13.794 2°47.835 3.4 8 11.4 102510 58
2009-04-23 08:57:40 51°13.803 2°47.839 2.7 3 11.4 102510 58
2009-04-23 08:57:45 51°13.812 2°47.843 3.3 2 11.4 102510 58
2009-04-23 08:57:50 51°13.822 2°47.848 2.8 359 11.4 102510 57
2009-04-23 08:57:55 51°13.833 2°47.852 3 359 11.4 102510 57
2009-04-23 08:58:00 51°13.844 2°47.857 3 356 11.3 102510 57
2009-04-23 08:58:05 51°13.856 2°47.861 3.8 357 11.2 102510 56
2009-04-23 08:58:10 51°13.868 2°47.866 3.1 352 11.2 102510 56
2009-04-23 08:58:15 51°13.881 2°47.871 4.3 349 11.2 102510 55
2009-04-23 08:58:20 51°13.894 2°47.878 4.5 350 11.2 102510 55
2009-04-23 08:58:24 51°13.905 2°47.882 4.5 350 11.1 102500 55
2009-04-23 08:58:30 51°13.921 2°47.89 4.4 351 11.1 102500 55
2009-04-23 08:58:35 51°13.935 2°47.896 4.5 346 11 102500 56
2009-04-23 08:58:40 51°13.949 2°47.903 5 284 11 102500 56
2009-04-23 08:58:44 51°13.961 2°47.908 5.5 343 11 102510 56
2009-04-23 08:58:50 51°13.979 2°47.917 5 279 11 102510 56
2009-04-23 08:58:55 51°13.994 2°47.924 5.7 344 10.9 102500 57
2009-04-23 08:59:00 51°14.01 2°47.932 5 279 10.9 102500 57
2009-04-23 08:59:05 51°14.025 2°47.939 4.8 343 10.8 102500 57
2009-04-23 08:59:10 51°14.041 2°47.949 4.6 284 10.8 102500 57
2009-04-23 08:59:15 51°14.056 2°47.957 4.5 341 10.7 102500 57
2009-04-23 08:59:20 51°14.071 2°47.967 5.7 285 10.7 102500 57
2009-04-23 08:59:24 51°14.084 2°47.974 5.7 341 10.7 102500 57
2009-04-23 08:59:30 51°14.102 2°47.986 5.3 280 10.7 102500 57
2009-04-23 08:59:35 51°14.117 2°47.996 5 338 10.6 102500 57
2009-04-23 08:59:40 51°14.133 2°48.006 4.6 285 10.6 102500 57
2009-04-23 08:59:44 51°14.145 2°48.014 5.6 343 10.6 102510 57
2009-04-23 08:59:50 51°14.163 2°48.027 5.9 281 10.6 102510 57
2009-04-23 08:59:55 51°14.178 2°48.038 6.1 337 10.6 102510 58
2009-04-23 09:00:00 51°14.194 2°48.048 5.4 286 10.6 102510 58
2009-04-23 09:00:05 51°14.209 2°48.06 5 341 10.6 102510 58
2009-04-23 09:00:10 51°14.224 2°48.071 5.7 279 10.6 102510 58
2009-04-23 09:00:15 51°14.239 2°48.082 4.9 339 10.6 102510 58
2009-04-23 09:00:20 51°14.255 2°48.093 5.1 279 10.6 102500 59
2009-04-23 09:00:24 51°14.267 2°48.102 6.3 339 10.6 102500 59
2009-04-23 09:00:30 51°14.285 2°48.115 5 281 10.6 102500 59
2009-04-23 09:00:35 51°14.301 2°48.125 5.5 342 10.6 102510 58
2009-04-23 09:00:40 51°14.316 2°48.136 4.5 281 10.6 102510 58
2009-04-23 09:00:45 51°14.331 2°48.147 5.6 341 10.6 102500 58
2009-04-23 09:00:50 51°14.347 2°48.157 5.2 279 10.6 102500 58
2009-04-23 09:00:55 51°14.362 2°48.168 5.3 340 10.6 102510 58
2009-04-23 09:01:00 51°14.378 2°48.179 4.7 279 10.6 102510 58
2009-04-23 09:01:04 51°14.39 2°48.188 5.3 341 10.6 102510 58
2009-04-23 09:01:10 51°14.408 2°48.202 4.2 286 10.5 102500 58
2009-04-23 09:01:15 51°14.424 2°48.213 4.2 340 10.5 102510 58
2009-04-23 09:01:20 51°14.439 2°48.225 4.7 285 10.5 102510 58
2009-04-23 09:01:24 51°14.451 2°48.234 5.4 339 10.5 102500 58
2009-04-23 09:01:30 51°14.469 2°48.249 4.4 281 10.5 102500 58
2009-04-23 09:01:35 51°14.485 2°48.261 5.1 338 10.5 102510 58
2009-04-23 09:01:40 51°14.5 2°48.272 4.6 287 10.5 102510 58
2009-04-23 09:01:44 51°14.512 2°48.282 4.8 338 10.5 102500 58
2009-04-23 09:01:50 51°14.531 2°48.295 4.4 281 10.5 102500 58
2009-04-23 09:01:55 51°14.546 2°48.307 5.2 337 10.5 102510 58
2009-04-23 09:02:00 51°14.561 2°48.318 4.4 280 10.5 102510 58
2009-04-23 09:02:05 51°14.577 2°48.329 5.3 338 10.5 102510 58
2009-04-23 09:02:10 51°14.592 2°48.34 4.2 279 10.5 102510 59
2009-04-23 09:02:15 51°14.608 2°48.35 4.8 341 10.5 102510 59
2009-04-23 09:02:20 51°14.624 2°48.361 4.9 279 10.5 102510 59
2009-04-23 09:02:25 51°14.639 2°48.371 4.1 341 10.5 102510 59
2009-04-23 09:02:30 51°14.655 2°48.381 4.6 281 10.5 102510 59
2009-04-23 09:02:35 51°14.671 2°48.392 5 339 10.5 102510 59
2009-04-23 09:02:40 51°14.687 2°48.402 4.9 285 10.5 102510 59
2009-04-23 09:02:44 51°14.699 2°48.41 5 337 10.5 102510 59
2009-04-23 09:02:50 51°14.718 2°48.423 3.9 -999 10.5 102510 59
2009-04-23 09:02:55 51°14.734 2°48.433 4.7 340 10.5 102510 59
2009-04-23 09:03:00 51°14.749 2°48.444 4.8 281 10.5 102510 59
2009-04-23 09:03:05 51°14.765 2°48.454 4 337 10.5 102510 59
2009-04-23 09:03:10 51°14.781 2°48.465 5.3 280 10.5 102510 59
2009-04-23 09:03:15 51°14.796 2°48.475 4.9 339 10.5 102510 59
2009-04-23 09:03:20 51°14.812 2°48.486 5.1 281 10.5 102510 59
2009-04-23 09:03:25 51°14.828 2°48.497 4.2 341 10.5 102510 59
2009-04-23 09:03:30 51°14.843 2°48.507 4.4 283 10.5 102510 59
2009-04-23 09:03:35 51°14.859 2°48.518 4.3 339 10.5 102510 59
2009-04-23 09:03:40 51°14.875 2°48.528 4.4 278 10.5 102510 59
2009-04-23 09:03:44 51°14.887 2°48.536 4.4 338 10.5 102510 59
2009-04-23 09:03:50 51°14.905 2°48.549 5.4 279 10.5 102510 59
2009-04-23 09:03:55 51°14.921 2°48.56 4.7 338 10.5 102500 59
2009-04-23 09:04:00 51°14.937 2°48.571 5.4 284 10.5 102500 59
2009-04-23 09:04:04 51°14.949 2°48.579 4.7 339 10.5 102510 59
2009-04-23 09:04:10 51°14.968 2°48.593 6.1 285 10.5 102510 59
2009-04-23 09:04:15 51°14.983 2°48.604 5.7 338 10.5 102510 59
2009-04-23 09:04:20 51°14.999 2°48.616 4.7 279 10.5 102510 59
2009-04-23 09:04:25 51°15.015 2°48.627 4.8 336 10.5 102510 59
2009-04-23 09:04:30 51°15.03 2°48.638 5.2 284 10.5 102510 59
2009-04-23 09:04:35 51°15.045 2°48.648 4.9 334 10.5 102510 59
2009-04-23 09:04:40 51°15.06 2°48.659 5.1 279 10.5 102500 59
2009-04-23 09:04:45 51°15.075 2°48.669 4.9 337 10.5 102510 59
2009-04-23 09:04:50 51°15.09 2°48.679 5.2 281 10.5 102510 59
2009-04-23 09:04:55 51°15.104 2°48.689 4.9 337 10.5 102510 59
2009-04-23 09:05:00 51°15.118 2°48.699 4.2 282 10.5 102510 59
2009-04-23 09:05:05 51°15.132 2°48.71 4.1 339 10.5 102500 60
2009-04-23 09:05:10 51°15.146 2°48.72 4.3 285 10.5 102500 60
2009-04-23 09:05:15 51°15.159 2°48.73 4.2 338 10.5 102500 60
2009-04-23 09:05:20 51°15.173 2°48.74 5.1 284 10.5 102510 59
2009-04-23 09:05:25 51°15.186 2°48.75 4.7 341 10.5 102510 59
2009-04-23 09:05:30 51°15.2 2°48.76 4.7 286 10.5 102510 59
2009-04-23 09:05:35 51°15.213 2°48.77 4.7 340 10.5 102510 59
2009-04-23 09:05:40 51°15.227 2°48.781 4.7 285 10.5 102510 59
2009-04-23 09:05:45 51°15.24 2°48.791 4.7 342 10.5 102510 59
2009-04-23 09:05:50 51°15.254 2°48.801 4.8 285 10.5 102510 59
2009-04-23 09:05:55 51°15.267 2°48.811 4.8 342 10.5 102510 60
2009-04-23 09:06:00 51°15.28 2°48.821 3.9 285 10.5 102510 60
2009-04-23 09:06:04 51°15.291 2°48.829 4.6 338 10.5 102510 59
2009-04-23 09:06:10 51°15.307 2°48.841 4.1 278 10.5 102510 59
2009-04-23 09:06:15 51°15.32 2°48.852 3.9 338 10.5 102510 59
2009-04-23 09:06:20 51°15.333 2°48.863 4.6 280 10.5 102510 59
2009-04-23 09:06:24 51°15.344 2°48.872 4.4 340 10.5 102510 59
2009-04-23 09:06:30 51°15.359 2°48.883 4.2 278 10.5 102510 59
2009-04-23 09:06:35 51°15.372 2°48.893 4.2 341 10.5 102510 59
2009-04-23 09:06:40 51°15.385 2°48.904 4.2 285 10.5 102510 59
2009-04-23 09:06:45 51°15.398 2°48.914 4.6 341 10.5 102510 59
2009-04-23 09:06:50 51°15.411 2°48.924 4.5 286 10.5 102510 59
2009-04-23 09:06:55 51°15.424 2°48.934 4.1 342 10.5 102510 59
2009-04-23 09:07:00 51°15.437 2°48.943 5.1 277 10.5 102510 59
2009-04-23 09:07:05 51°15.45 2°48.953 4.8 343 10.5 102510 59
2009-04-23 09:07:10 51°15.463 2°48.963 5 284 10.5 102510 59
2009-04-23 09:07:15 51°15.476 2°48.972 4.6 344 10.5 102510 59
2009-04-23 09:07:20 51°15.489 2°48.982 4.6 280 10.5 102510 59
2009-04-23 09:07:25 51°15.502 2°48.992 4.3 343 10.5 102510 59
2009-04-23 09:07:30 51°15.516 2°49.001 4.3 285 10.5 102510 59
2009-04-23 09:07:35 51°15.529 2°49.01 4.6 340 10.5 102510 59
2009-04-23 09:07:40 51°15.542 2°49.02 5.3 279 10.5 102510 59
2009-04-23 09:07:45 51°15.555 2°49.03 5.5 340 10.5 102510 59
2009-04-23 09:07:50 51°15.567 2°49.041 4.6 282 10.5 102510 59
2009-04-23 09:07:55 51°15.579 2°49.053 4.5 339 10.5 102510 59
2009-04-23 09:08:00 51°15.591 2°49.066 4.9 284 10.5 102510 59
2009-04-23 09:08:05 51°15.602 2°49.08 4.9 339 10.5 102510 59
2009-04-23 09:08:10 51°15.613 2°49.095 4.8 285 10.5 102510 59
2009-04-23 09:08:15 51°15.624 2°49.11 5.1 339 10.5 102510 60